x

Silver Bay, Mn (slvm5) Weather Station

4:40am - Mon 24th Apr 2017 All times are CDT. -5 hours from GMT.

  • Wind
    23mph, 30mph gusts
  • Air Temp 33°f
  • Sea Pressure 1016.9mb
  • Silver Bay, Mn
  • Silver Bay, Mn

More Historic Weather Station data

Upgrade to MSW Pro to gain access to the past 30 days of data for over 8000 Wavebouys and Weather Stations around the globe.

Join Pro

Comparision Forecast

View Surf forecast
   
Mon 04/24 4:40am 23 30 mph 1016.9mb 33f
4:30am 23 30 mph 1016.9mb 33f
4:20am 23 30 mph 1016.9mb 33f
4:10am 24 29 mph 1017.3mb 33f
4:01am 21
mph
1017.6mb 32f
4:00am 21 25 mph 1017.6mb 32f
3:40am 20 29 mph 1017.9mb 32f
3:32am 22 29 mph 1017.9mb 32f
3:30am 21 25 mph 1017.9mb 32f
3:20am 21 26 mph 1018.3mb 32f
3:10am 18 24 mph 1018.3mb 32f
3:01am 20 26 mph 1018.3mb 32f
3:00am 20 26 mph 1018.3mb 32f
2:40am 16 26 mph 1018.3mb 32f
2:30am 20 25 mph 1018.6mb 32f
2:20am 16 24 mph 1018.3mb 31f
2:10am 15 24 mph 1018.6mb 31f
2:00am 16 24 mph 1018.6mb 31f
1:40am 18 28 mph 1019mb 31f
1:30am 15 28 mph 1019.3mb 32f
1:20am 17 28 mph 1019.3mb 32f
1:10am 22 26 mph 1019.3mb 32f
1:00am 16 24 mph 1019.3mb 32f
12:40am 15 25 mph 1019.6mb 33f
12:30am 18 24 mph 1019.6mb 33f
12:20am 21 25 mph 1019.6mb 34f
12:10am 14 22 mph 1019.6mb 34f
12:00am 20 24 mph 1019.6mb 34f
Sun 04/23 11:40pm 21 24 mph 1019.6mb 35f
11:30pm 20 24 mph 1020mb 35f
11:20pm 20 23 mph 1019.6mb 34f
11:10pm 18 23 mph 1020mb 34f
11:00pm 17 21 mph 1020mb 34f
10:40pm 13 21 mph 1020.7mb 33f
10:30pm 10 20 mph 1020.7mb 33f
10:20pm 11 18 mph 1020.7mb 33f
10:10pm 13 20 mph 1020.7mb 33f
10:01pm 13 20 mph 1020.3mb 33f
10:00pm 13 20 mph 1020.7mb 33f
9:40pm 14 20 mph 1020.3mb 33f
9:30pm 10 17 mph 1020.7mb 33f
9:20pm 9 17 mph 1020.3mb 33f
9:10pm 13 17 mph 1020.7mb 33f
9:00pm 8 18 mph 1020.7mb 33f
8:40pm 13 17 mph 1020.7mb 33f
8:30pm 8 17 mph 1020.7mb 33f
8:20pm 8 15 mph 1020.7mb 33f
8:10pm 8 16 mph 1021mb 33f
8:00pm 14 16 mph 1021mb 34f
7:40pm 13 16 mph 1021.3mb 34f
7:30pm 11 16 mph 1021mb 34f
7:20pm 14 16 mph 1021mb 34f
7:10pm 13 16 mph 1021mb 34f
7:00pm 13 16 mph 1021mb 34f
6:40pm 14 15 mph 1021.3mb 34f
6:30pm 13 14 mph 1021.3mb 34f
6:20pm 13 14 mph 1021.3mb 34f
6:10pm 11 14 mph 1021.3mb 34f
6:00pm 11 14 mph 1021.3mb 34f
5:40pm 11 14 mph 1021.3mb 34f
5:30pm 11 13 mph 1021.7mb 34f
5:20pm 10 13 mph 1021.7mb 34f
5:10pm 11 13 mph 1021.7mb 34f
5:00pm 11 13 mph 1021.3mb 34f
4:40pm 10 13 mph 1021.7mb 33f
4:30pm 11 13 mph 1021.7mb 34f
4:20pm 10 13 mph 1021.7mb 34f
4:10pm 9 13 mph 1021.7mb 34f
4:00pm 11 16 mph 1022mb 34f
3:40pm 11 14 mph 1022mb 34f
3:30pm 10 13 mph 1022mb 34f
3:20pm 11 14 mph 1022.4mb 34f
3:10pm 10 14 mph 1022.4mb 34f
3:00pm 11 14 mph 1022.4mb 34f
2:40pm 10 13 mph 1022.7mb 34f
2:30pm 11 13 mph 1022.7mb 34f
2:20pm 11 14 mph 1022.7mb 34f
2:10pm 11 14 mph 1022.7mb 34f
2:00pm 11 14 mph 1022.7mb 34f
1:40pm 13
mph
1022.7mb 35f
1:30pm 11 13 mph 1023mb 35f
1:20pm 9 13 mph 1023mb 35f
1:10pm 13 14 mph 1023mb 35f
1:00pm 11 14 mph 1023mb 35f
12:40pm 11 15 mph 1023mb 35f
12:30pm 13 15 mph 1023mb 35f
12:20pm 14 15 mph 1023mb 35f
12:10pm 13 14 mph 1023.4mb 35f
12:00pm 13 15 mph 1023.4mb 35f
11:40am 11 14 mph 1023.7mb 35f
11:30am 13 14 mph 1023.7mb 35f
11:20am 13 14 mph 1023.4mb 35f
11:10am 11 13 mph 1023.7mb 36f
11:00am 11 13 mph 1023.7mb 36f
10:40am 14 15 mph 1023.7mb 36f
10:30am 13 16 mph 1023.7mb 36f
10:20am 13 15 mph 1023.4mb 36f
10:10am 14 15 mph 1023.7mb 36f
10:00am 13 16 mph 1023.7mb 36f
9:40am 11 13 mph 1023.7mb 37f
9:30am 6 11 mph 1023.4mb 37f
9:20am 8 11 mph 1023.4mb 36f
9:10am 6 10 mph 1023.4mb 36f
9:00am 7 10 mph 1023.4mb 36f
8:40am 5 9 mph 1023.4mb 35f
8:30am 7 10 mph 1023.4mb 35f
8:20am 8 13 mph 1023.4mb 35f
8:10am 6 11 mph 1023.7mb 35f
8:00am 6 11 mph 1023.4mb 35f
7:40am 9 14 mph 1023.4mb 35f
7:30am 13 17 mph 1023.4mb 35f
7:20am 9 13 mph 1023.4mb 35f
7:10am 7 11 mph 1023.4mb 35f
7:00am 5 11 mph 1023mb 35f
6:40am 6 10 mph 1022.7mb 35f
6:30am 7 10 mph 1022.4mb 35f
6:20am 6 8 mph 1022.4mb 35f
6:10am 5 9 mph 1022.4mb 34f
6:00am 3 8 mph 1022.4mb 35f
5:40am 6 9 mph 1022mb 35f
5:30am 6 8 mph 1022mb 35f
5:20am 3 6 mph 1021.7mb 35f
5:10am 3 6 mph 1021.3mb 35f
5:09am 3 8 mph 1021.3mb 35f
5:00am 5 7 mph 1021.7mb 35f
4:40am 5 7 mph 1021.7mb 36f
4:30am 5 6 mph 1021mb 36f
4:20am 2 5 mph 1021.3mb 36f
4:10am 2 7 mph 1021mb 36f
4:09am 5 15 mph 1021mb 37f
4:00am 5 7 mph 1020.7mb 36f
3:40am 8 10 mph 1021mb 37f
3:30am 9 14 mph 1020.7mb 37f
3:20am 10 15 mph 1020.3mb 38f
3:10am 11 22 mph 1020.7mb 38f
3:08am 13 22 mph 1020.7mb 39f
3:00am 10 16 mph 1020.7mb 40f
2:40am 3 8 mph 1020mb 40f
2:30am 3 11 mph 1020mb 40f
2:20am 7 13 mph 1020mb 41f
2:10am 10 15 mph 1020.3mb 42f
2:08am 10 18 mph 1020.3mb 42f
2:00am 11 18 mph 1020mb 42f
1:40am 10 16 mph 1019.6mb 44f
1:30am 6 15 mph 1019.3mb 45f
1:20am 13 16 mph 1019.3mb 45f
1:10am 5 8 mph 1018.3mb 45f
1:08am 5 10 mph 1018.3mb 45f
1:00am 6 9 mph 1018.6mb 45f
12:40am 6 9 mph 1018.6mb 45f
12:30am 2 6 mph 1018.6mb 45f
12:20am 3 10 mph 1019mb 46f
12:10am 6 11 mph 1019mb 46f
12:07am 6 17 mph 1019mb 47f
12:00am 11 17 mph 1018.6mb 47f
Sat 04/22 11:40pm 3 5 mph 1018.3mb 46f
11:30pm 2 3 mph 1017.9mb 46f
11:20pm 3 6 mph 1017.9mb 46f
11:10pm  -  9 mph 1017.9mb 48f
11:07pm 2 11 mph 1017.9mb 49f
11:00pm 7 9 mph 1017.9mb 49f
10:40pm 3 7 mph 1017.9mb 49f
10:30pm 7 10 mph 1017.6mb 50f
10:20pm 5 11 mph 1017.3mb 50f
10:10pm 5 10 mph 1017.6mb 48f
10:06pm 6 26 mph 1017.6mb 49f
10:00pm 9 16 mph 1017.3mb 48f
9:40pm 6 21 mph 1017.3mb 52f
9:30pm 9 21 mph 1016.9mb 53f
9:20pm 16 24 mph 1016.6mb 53f
9:10pm 15 26 mph 1016.6mb 54f
9:06pm 11 28 mph 1016.6mb 54f
9:00pm 18 26 mph 1016.6mb 54f
8:40pm 15 24 mph 1016.3mb 56f
8:30pm 21 28 mph 1016.3mb 57f
8:20pm 15 26 mph 1016.3mb 58f
8:10pm 16 25 mph 1015.9mb 59f
8:06pm 16 24 mph 1015.9mb 59f
8:00pm 13 22 mph 1015.9mb 59f
7:40pm 11 18 mph 1015.9mb 59f
7:30pm 10 21 mph 1015.9mb 61f
7:20pm 10 20 mph 1015.9mb 61f
7:10pm 15 20 mph 1015.9mb 62f
7:05pm 9 17 mph 1015.9mb 63f
7:00pm 10 17 mph 1015.9mb 63f
6:40pm 15 20 mph 1015.9mb 65f
6:30pm 13 17 mph 1015.6mb 66f
6:20pm 11 20 mph 1015.9mb 66f
6:10pm 9 28 mph 1015.6mb 66f
6:05pm 18
mph
1015.6mb 67f
6:00pm 16 29 mph 1015.2mb 68f
5:40pm 10 15 mph 1015.2mb 67f
5:30pm 14 23 mph 1015.2mb 67f
5:20pm 14 24 mph 1015.6mb 67f
5:10pm 15 28 mph 1015.6mb 66f
5:04pm 22
mph
1015.6mb 68f
5:00pm 22 26 mph 1015.2mb 68f
4:40pm 20 32 mph 1015.6mb 68f
4:37pm 20 32 mph 1015.2mb 68f
4:30pm 13 23 mph 1015.6mb 68f
4:20pm 16 22 mph 1015.9mb 67f
4:10pm 14 22 mph 1015.9mb 67f
4:04pm 14 26 mph 1015.9mb -
4:00pm 14 22 mph 1015.9mb -
3:40pm 15 26 mph 1016.3mb -
3:30pm 20 25 mph 1016.6mb -
3:20pm 17 24 mph 1016.3mb -
3:10pm 15 22 mph 1016.6mb 55f
3:00pm 11 22 mph 1016.9mb 64f
2:40pm 9 20 mph 1016.9mb 53f
2:30pm 14
mph
1017.3mb 59f
2:20pm 14 21 mph 1017.3mb 51f
2:10pm 17 21 mph 1017.3mb 51f
2:03pm 17
mph
1017.3mb 51f
2:00pm 17 24 mph 1017.6mb 51f
1:40pm 17 30 mph 1017.9mb 54f
1:30pm 20 24 mph 1018.3mb 50f
1:20pm 16 25 mph 1018.3mb 49f
1:10pm 17 23 mph 1018.3mb 49f
1:02pm 18 28 mph 1018.6mb 50f
1:00pm 16 23 mph 1018.3mb 50f
12:40pm 15 28 mph 1018.6mb 49f
12:30pm 16 23 mph 1019mb 47f
12:20pm 20 23 mph 1019mb 48f
12:10pm 20 23 mph 1019mb 47f
12:02pm 13 16 mph 1019mb 46f
12:00pm 11 21 mph 1019.3mb 46f
11:40am 14 20 mph 1019.3mb 45f
11:30am 13 21 mph 1019.3mb 47f
11:20am 17 20 mph 1019.6mb 44f
11:10am 16 20 mph 1019.6mb 44f
11:02am 14 21 mph 1020mb 42f
11:00am 11 17 mph 1020mb 42f
10:40am 17 21 mph 1020.3mb 42f
10:30am 14 18 mph 1020.3mb 42f
10:20am 16 20 mph 1020.3mb -
10:10am 17 21 mph 1020.7mb -
10:01am 15 18 mph 1020.3mb -
10:00am 15 17 mph 1020.3mb -
9:40am 15 17 mph 1020.3mb -
9:30am 14 16 mph 1020.7mb -
9:20am 13 15 mph 1020.7mb -
9:10am 7 15 mph 1021mb 53f
9:01am 8 18 mph 1021mb 59f
9:00am 8 14 mph 1021mb 59f
8:40am 9 15 mph 1021mb 56f
8:30am 11 16 mph 1021mb 53f
8:20am 11 15 mph 1021mb 52f
8:10am 13 18 mph 1021mb 51f
8:00am 10 14 mph 1021.3mb 51f
7:40am 8 13 mph 1021.3mb 49f
7:30am 3 11 mph 1021.3mb 44f
7:20am 9 13 mph 1021.3mb 44f
7:10am 9 11 mph 1021.3mb 44f
7:00am 9 13 mph 1021.3mb 44f
6:40am 6 10 mph 1021.3mb 45f
6:00am 9 13 mph 1021mb 41f
5:40am 6 8 mph 1021mb 43f
5:30am 3 6 mph 1021mb 46f
5:20am 6 11 mph 1021mb 46f
5:10am 5 13 mph 1021.3mb 43f
5:00am 6 8 mph 1021.3mb 41f
4:40am 7 9 mph 1021.3mb 39f
4:30am 6 7 mph 1021.3mb 41f
4:20am 2 5 mph 1021.3mb 39f
4:10am 5 6 mph 1021.3mb 38f
4:00am 3 5 mph 1021.3mb 36f
3:40am  -  mph 1021.3mb 37f
3:30am  -  1 mph 1021.3mb 36f
3:20am  -  2 mph 1021.3mb 37f
3:10am  -  2 mph 1021.3mb 35f
3:00am 2 3 mph 1021.3mb 36f
2:40am  -  2 mph 1021.3mb 37f
2:30am  -  2 mph 1021.3mb 37f
2:20am  -  2 mph 1021.3mb 36f
2:10am 2 3 mph 1021.7mb 37f
2:00am 1 3 mph 1021.7mb 37f
1:40am 2 7 mph 1021.7mb 38f
1:30am 6 7 mph 1021.7mb 38f
1:20am 3
mph
1021.7mb 38f
1:10am 2
mph
1021.7mb 39f
1:00am  -  2 mph 1021.7mb 39f
12:40am 2 3 mph 1021.7mb 39f
12:30am 2 3 mph 1021.3mb 40f
12:20am 3 6 mph 1021.7mb 40f
12:10am 5
mph
1021.3mb 41f
12:00am 1 6 mph 1021.3mb 42f
Fri 04/21 11:40pm 2 3 mph 1021.3mb 42f
11:30pm 3
mph
1021.3mb 39f
11:20pm 1 3 mph 1021.3mb 40f
11:10pm 2 3 mph 1021.3mb 41f
11:00pm 1 2 mph 1021.3mb 39f
10:40pm  -  1 mph 1021.7mb 40f
10:30pm  -  2 mph 1021.7mb 40f
10:20pm  -  2 mph 1021.7mb 40f
10:10pm  -  5 mph 1022mb 40f
10:00pm 3 6 mph 1022mb 40f
9:40pm 3 6 mph 1022mb 49f
9:30pm 3 5 mph 1022.4mb 49f
9:20pm 3 5 mph 1022.4mb 49f
9:10pm 1 2 mph 1022.4mb 50f
9:00pm 1 3 mph 1022.4mb 50f
8:40pm 3 5 mph 1022.4mb 48f
8:30pm 3 5 mph 1022.4mb 47f
8:20pm 2 3 mph 1022.4mb 49f
8:10pm 3
mph
1022.4mb 47f
8:00pm 3 5 mph 1022.4mb 43f
7:40pm 5
mph
1022.4mb 44f
7:30pm 5
mph
1022.4mb 45f
7:20pm 5 7 mph 1022.4mb 45f
7:10pm 6 8 mph 1022.4mb 46f
7:00pm 8 9 mph 1022mb 48f
6:40pm 10
mph
1022.4mb 48f
6:30pm 10 11 mph 1022.4mb 48f
6:20pm 11 13 mph 1022.4mb 49f
6:10pm 9 13 mph 1022.4mb 48f
6:00pm 10 15 mph 1022.4mb 48f
5:40pm 13 14 mph 1022.4mb 45f
5:30pm 14 15 mph 1022.4mb 45f
5:20pm 13 15 mph 1022.4mb 44f
5:10pm 14 15 mph 1022.4mb 43f
5:00pm 14 15 mph 1022.4mb 44f
4:40pm 10 13 mph 1022mb 46f
4:30pm 11 13 mph 1022mb 45f
4:20pm 14 15 mph 1022mb 45f
4:10pm 11
mph
1022mb 45f
4:00pm 10 13 mph 1022mb 45f
3:40pm 11
mph
1021.7mb 46f
3:30pm 10 11 mph 1021.7mb 46f
3:20pm 9 11 mph 1021.7mb 44f
3:10pm 11 13 mph 1021.7mb 43f
3:00pm 11 13 mph 1021.7mb 44f
2:40pm 13 14 mph 1021.7mb 41f
2:30pm 11 14 mph 1021.3mb 41f
2:20pm 8 14 mph 1021.7mb 41f
2:10pm 10 14 mph 1021.3mb 41f
2:00pm 14 15 mph 1021.3mb 42f
1:40pm 10 13 mph 1021.7mb 43f
1:30pm 13 14 mph 1021.7mb 40f
1:20pm 14 15 mph 1021.7mb 40f
1:10pm 13 16 mph 1021.7mb 40f
1:00pm 14 15 mph 1021.7mb 40f
12:40pm 14 15 mph 1021.7mb 40f
12:30pm 13 14 mph 1021.7mb 40f
12:20pm 13 15 mph 1021.7mb 40f
12:10pm 11 13 mph 1021.7mb 40f
12:00pm 11 13 mph 1021.7mb 41f
11:40am 10 13 mph 1021.7mb 40f
11:30am 10 13 mph 1021.7mb 40f
11:20am 11 13 mph 1021.7mb 40f
11:10am 11 13 mph 1021.7mb 40f
11:00am 10 14 mph 1021.7mb 40f
10:40am 10 14 mph 1021.3mb 41f
10:30am 13
mph
1021.7mb 40f
10:20am 10 13 mph 1021.7mb 40f
10:10am 10 13 mph 1021.3mb 40f
10:00am 10
mph
1021.3mb 41f
9:40am 7 8 mph 1021.3mb 40f
9:30am 7 8 mph 1021.3mb 40f
9:20am 6 7 mph 1021.3mb 40f
9:10am 6 7 mph 1021.3mb 40f
9:00am 6 8 mph 1021.3mb 41f
8:40am 5 6 mph 1021.3mb 40f
8:30am 5
mph
1021.3mb 41f
8:20am 3 5 mph 1021.3mb 44f
8:10am 1 3 mph 1021mb 41f
8:00am 5 6 mph 1021mb 40f
7:40am 5 6 mph 1021mb 40f
7:30am 2 3 mph 1021mb 41f
7:20am 3
mph
1020.7mb 42f
7:10am 2 5 mph 1020.7mb 42f
7:00am 1 14 mph 1020.7mb 40f
6:40am 2
mph
1020.3mb 38f
6:30am  -  2 mph 1020.3mb 38f
5:40am  -  3 mph 1019.6mb 38f
5:30am 2 5 mph 1019.6mb 38f
5:20am 3 7 mph 1019.3mb 39f
5:10am 3 7 mph 1019.3mb 39f
5:00am 6 7 mph 1019.3mb 39f
4:40am 2 6 mph 1019mb 39f
4:30am 5 9 mph 1019mb 40f
4:20am 3 14 mph 1019mb 41f
4:10am 8 14 mph 1019mb 40f
4:02am 7 23 mph 1018.6mb 41f
4:00am 8 13 mph 1018.6mb 41f
3:40am 11 21 mph 1018.3mb 42f
3:30am 15 20 mph 1018.3mb 42f
3:20am 16 22 mph 1017.9mb 42f
3:10am 17 23 mph 1017.9mb 42f
3:01am 17 25 mph 1017.9mb 42f
3:00am 17 22 mph 1017.9mb 42f
2:40am 16 25 mph 1017.9mb 42f
2:30am 17 23 mph 1017.9mb 42f
2:20am 17 21 mph 1017.9mb 41f
2:10am 14 22 mph 1017.9mb 41f
2:01am 16 25 mph 1017.9mb 42f
2:00am 16 23 mph 1017.9mb 42f
1:40am 17 25 mph 1018.3mb 42f
1:30am 16 22 mph 1018.3mb 41f
1:20am 13 20 mph 1018.3mb 41f
1:10am 14 20 mph 1018.3mb 42f
1:00am 14 22 mph 1018.3mb 42f
12:40am 16 20 mph 1018.3mb 42f
12:30am 16 21 mph 1018.3mb 42f
12:20am 15 20 mph 1017.9mb 42f
12:10am 14 18 mph 1017.9mb 42f
12:00am 10 17 mph 1017.9mb 43f
Thu 04/20 11:40pm 9 14 mph 1017.3mb 43f
11:30pm 9 15 mph 1017.6mb 43f
11:20pm 13 17 mph 1017.6mb 43f
11:10pm 11 15 mph 1017.6mb 43f
11:00pm 11 22 mph 1017.6mb 42f
10:40pm 13 16 mph 1017.3mb 42f
10:30pm 3 7 mph 1016.9mb 39f
10:20pm 3 7 mph 1016.9mb 38f
10:10pm 2 5 mph 1016.9mb 38f
10:00pm 2 5 mph 1016.9mb 38f
9:40pm 3 6 mph 1016.9mb 39f
9:30pm 6
mph
1016.6mb 39f
9:28pm 6 14 mph 1016.6mb 38f
9:20pm 5 7 mph 1016.6mb 38f
9:10pm 6 7 mph 1016.6mb 38f
9:00pm 2 5 mph 1016.6mb 39f
8:40pm 10 14 mph 1016.6mb 39f
8:30pm 2 8 mph 1016.6mb 39f
8:27pm 3 21 mph 1016.6mb 40f
8:20pm 6 8 mph 1016.6mb 39f
8:10pm 5 21 mph 1016.6mb 40f
8:00pm 9 14 mph 1016.6mb 40f
7:40pm 7 13 mph 1016.3mb 40f
7:30pm 9 14 mph 1016.3mb 39f
7:27pm 7 14 mph 1016.3mb 39f
7:20pm 8 11 mph 1015.9mb 39f
7:10pm 7 11 mph 1016.3mb 39f
7:00pm 7 11 mph 1015.9mb 39f
6:40pm 7 14 mph 1015.9mb 39f
6:30pm 8 10 mph 1015.6mb 38f
6:26pm 6 16 mph 1015.6mb 39f
6:20pm 9 15 mph 1015.6mb 39f
6:10pm 9 14 mph 1015.6mb 39f
6:00pm 11 16 mph 1015.2mb 39f
5:40pm 11 15 mph 1015.2mb 39f
5:30pm 8 14 mph 1015.2mb 39f
5:26pm 5 14 mph 1014.9mb 39f
5:20pm 8 14 mph 1014.9mb 39f
5:10pm 5 10 mph 1014.9mb 38f
5:00pm 7 11 mph 1014.9mb 36f
4:40pm 7 13 mph 1014.9mb 37f
4:30pm 9 13 mph 1014.6mb 37f
4:25pm 8 21 mph 1014.6mb 36f
4:20pm 10 15 mph 1014.6mb 35f
4:10pm 9 17 mph 1014.6mb 36f
4:00pm 8 17 mph 1014.2mb 37f
3:40pm 13 21 mph 1014.2mb 36f
3:30pm 13 21 mph 1013.9mb 36f
3:25pm 11 24 mph 1014.2mb 36f
3:20pm 11 24 mph 1014.2mb 36f
3:10pm 14 20 mph 1014.2mb 35f
3:00pm 8 20 mph 1014.2mb 35f
2:40pm 9 16 mph 1014.2mb 35f
2:30pm 10 17 mph 1014.2mb 34f
2:25pm 8 24 mph 1014.2mb 34f
2:20pm 10 16 mph 1014.2mb 34f
2:10pm 11 17 mph 1014.2mb 35f
2:00pm 10 17 mph 1014.2mb 35f
1:40pm 16 24 mph 1014.2mb 35f
1:30pm 14 23 mph 1014.2mb 35f
1:24pm 13 24 mph 1014.2mb 35f
1:20pm 16 23 mph 1014.2mb 35f
1:10pm 15 23 mph 1014.2mb 35f
1:00pm 14 24 mph 1014.2mb 35f
12:40pm 15 24 mph 1014.2mb 35f
12:30pm 17 25 mph 1014.2mb 35f
12:24pm 16
mph
1014.2mb 35f
12:20pm 16 26 mph 1014.2mb 35f
12:10pm 14 25 mph 1014.2mb 35f
12:00pm 14 26 mph 1014.2mb 34f
11:46am 15 31 mph 1013.9mb 35f
11:40am 16 31 mph 1014.2mb 35f
11:30am 18 29 mph 1014.2mb 35f
11:20am 18 29 mph 1014.2mb 35f
11:10am 16 36 mph 1014.2mb 35f
11:00am 21 32 mph 1014.2mb 36f
10:40am 20 38 mph 1014.2mb 36f
10:39am 22 30 mph 1014.2mb 36f
10:30am 26 36 mph 1014.6mb 36f
10:20am 22 32 mph 1014.6mb 36f